FW6021 Weather Reports


Display with metric or nautical units.
time (UTC)temp
F
wind
direction
speed
MPH
gust
MPH
rain 1hr
in
rain 24hr
in
rain mn
in
humidity
%
barometer
mb
20200329161517 44 64 7.0 11.0 0.00 0.00 0.00 53 1032.1
20200329160521 45 54 4.0 6.0 0.00 0.00 0.00 57 1032.1
20200329155545 45 25 9.0 16.0 0.00 0.00 0.00 55 1032.1
20200329154528 46 27 4.0 8.0 0.00 0.00 0.00 62 1032.1
20200329153524 45 28 4.0 7.0 0.00 0.00 0.00 64 1032.1
20200329152535 46 46 6.0 8.0 0.00 0.00 0.00 65 1032.1
20200329151518 46 3 7.0 10.0 0.00 0.00 0.00 66 1033.1
20200329150516 45 146 8.0 9.0 0.00 0.00 0.00 66 1033.1
20200329143517 46 51 5.0 10.0 0.00 0.00 0.00 71 1033.1
20200329142530 45 350 5.0 11.0 0.00 0.00 0.00 71 1033.1
20200329141519 46 89 5.0 8.0 0.00 0.00 0.00 77 1034.1
20200329140534 45 14 6.0 13.0 0.00 0.00 0.00 72 1034.1
20200329135551 46 24 8.0 13.0 0.00 0.00 0.00 69 1034.1
20200329134541 47 69 8.0 12.0 0.00 0.00 0.00 75 1034.1
20200329133517 45 51 5.0 10.0 0.00 0.00 0.00 79 1033.7
20200329132533 44 357 3.0 5.0 0.00 0.00 0.00 79 1033.1
20200329131524 42 8 6.0 11.0 0.00 0.00 0.00 84 1032.1
20200329130533 41 14 7.0 12.0 0.00 0.00 0.00 83 1032.5
20200329125533 41 50 5.0 5.0 0.00 0.00 0.00 86 1033.1
20200329124550 40 54 3.0 4.0 0.00 0.00 0.00 81 1033.1
20200329123540 41 2 10.0 17.0 0.00 0.00 0.00 66 1032.7
20200329122556 45 29 7.0 9.0 0.00 0.00 0.00 55 1032.1
20200329121525 46 87 8.0 13.0 0.00 0.00 0.00 54 1032.1
20200329120515 46 27 5.0 12.0 0.00 0.00 0.00 63 1032.1
20200329115555 42 351 6.0 11.0 0.00 0.00 0.00 62 1032.1
20200329114525 43 37 8.0 13.0 0.00 0.00 0.00 59 1032.1
20200329113538 47 30 5.0 8.0 0.00 0.00 0.00 49 1032.1
20200329112535 47 45 6.0 10.0 0.00 0.00 0.00 47 1032.1
20200329111523 49 53 10.0 13.0 0.00 0.00 0.00 44 1032.1
20200329110531 48 37 8.0 12.0 0.00 0.00 0.00 46 1031.7
20200329105515 47 351 7.0 14.0 0.00 0.00 0.00 47 1031.1
20200329104543 45 6 8.0 10.0 0.00 0.00 0.00 50 1031.1
20200329103519 45 16 7.0 11.0 0.00 0.00 0.00 47 1031.1
20200329102515 45 40 5.0 8.0 0.00 0.00 0.00 45 1031.1
20200329101523 45 28 4.0 12.0 0.00 0.00 0.00 43 1031.1
20200329100548 46 0 5.0 8.0 0.00 0.00 0.00 42 1031.1
20200329095531 47 46 7.0 10.0 0.00 0.00 0.00 41 1031.1
20200329094524 47 46 7.0 9.0 0.00 0.00 0.00 41 1031.1
20200329093527 47 55 8.0 11.0 0.00 0.00 0.00 41 1030.7
20200329092554 48 47 6.0 12.0 0.00 0.00 0.00 41 1030.0
20200329090534 47 22 9.0 19.0 0.00 0.00 0.00 40 1030.0
20200329085532 47 48 5.0 10.0 0.00 0.00 0.00 40 1030.0
20200329084518 47 20 6.0 9.0 0.00 0.00 0.00 40 1030.0
20200329083543 48 9 6.0 9.0 0.00 0.00 0.00 39 1030.0
20200329082525 49 304 5.0 13.0 0.00 0.00 0.00 38 1030.0
20200329081516 50 38 7.0 10.0 0.00 0.00 0.00 39 1030.0
20200329080525 49 4 8.0 11.0 0.00 0.00 0.00 41 1030.0
20200329075531 47 8 7.0 10.0 0.00 0.00 0.00 47 1030.0
20200329074605 41 32 5.0 8.0 0.00 0.00 0.00 52 1030.0
20200329073539 40 351 8.0 11.0 0.00 0.00 0.00 53 1030.0
20200329072516 41 65 5.0 7.0 0.00 0.00 0.00 55 1030.0
20200329071523 40 6 4.0 8.0 0.00 0.00 0.00 56 1030.0
20200329070536 39 30 5.0 10.0 0.00 0.00 0.00 57 1029.7
20200329065549 39 17 5.0 9.0 0.00 0.00 0.00 57 1029.0
20200329064516 39 31 6.0 8.0 0.00 0.00 0.00 57 1029.0
20200329063532 39 61 4.0 6.0 0.00 0.00 0.00 57 1029.0
20200329062517 38 32 5.0 8.0 0.00 0.00 0.00 58 1029.0
20200329061515 38 12 6.0 7.0 0.00 0.00 0.00 59 1029.0
20200329060533 38 319 2.0 4.0 0.00 0.00 0.00 59 1029.0
20200329055523 38 55 3.0 8.0 0.00 0.00 0.00 60 1029.0
20200329052519 38 310 4.0 6.0 0.00 0.00 0.00 59 1029.0
20200329051528 39 32 8.0 11.0 0.00 0.00 0.00 59 1029.0
20200329050538 39 32 7.0 12.0 0.00 0.00 0.00 59 1029.0
20200329045527 38 60 5.0 10.0 0.00 0.00 0.00 59 1029.0
20200329044558 39 40 5.0 6.0 0.00 0.00 0.00 58 1029.0
20200329043527 39 11 5.0 8.0 0.00 0.00 0.00 58 1029.0
20200329042523 39 6 3.0 6.0 0.00 0.00 0.00 58 1029.0
20200329041529 39 24 7.0 10.0 0.00 0.00 0.00 57 1029.0
20200329040525 39 24 6.0 10.0 0.00 0.00 0.00 57 1029.0
20200329035544 39 51 6.0 9.0 0.00 0.00 0.00 57 1029.0
20200329034532 39 26 4.0 7.0 0.00 0.00 0.00 56 1029.0
20200329033531 39 24 3.0 6.0 0.00 0.00 0.00 56 1029.0
20200329032516 38 22 6.0 10.0 0.00 0.00 0.00 58 1029.0
20200329031526 38 334 3.0 6.0 0.00 0.00 0.00 61 1029.0
20200329030533 38 56 4.0 6.0 0.00 0.00 0.00 63 1029.0
20200329025519 38 58 3.0 4.0 0.00 0.00 0.00 64 1029.0
20200329024523 38 81 3.0 4.0 0.00 0.00 0.00 64 1029.0
20200329023519 38 47 5.0 8.0 0.00 0.00 0.00 64 1029.0
20200329022524 39 21 6.0 9.0 0.00 0.00 0.00 64 1029.0
20200329021531 39 26 6.0 11.0 0.00 0.00 0.00 64 1029.0
20200329020517 39 42 6.0 8.0 0.00 0.00 0.00 64 1029.0
20200329015519 40 24 8.0 10.0 0.00 0.00 0.00 64 1029.0
20200329014545 40 41 7.0 9.0 0.00 0.00 0.00 65 1029.0
20200329013536 39 336 5.0 6.0 0.00 0.00 0.00 65 1029.0
20200329012517 39 27 5.0 8.0 0.00 0.00 0.00 65 1029.0
20200329011524 39 76 4.0 8.0 0.00 0.00 0.00 65 1029.0
20200329010537 39 30 5.0 7.0 0.00 0.00 0.00 66 1029.0
20200329005531 39 45 3.0 6.0 0.00 0.00 0.00 65 1029.0
20200329004601 39 35 5.0 6.0 0.00 0.00 0.00 66 1029.0
20200329003517 40 32 6.0 13.0 0.00 0.00 0.00 65 1029.0
20200329002523 40 24 5.0 13.0 0.00 0.00 0.00 65 1029.0
20200329001533 41 21 6.0 11.0 0.00 0.00 0.00 65 1029.0
20200329000532 41 27 4.0 5.0 0.00 0.00 0.00 67 1029.0
20200328235515 41 37 5.0 8.0 0.00 0.00 0.00 67 1029.0
20200328234531 40 347 4.0 6.0 0.00 0.00 0.00 66 1028.0
20200328233548 40 56 3.0 6.0 0.00 0.00 0.00 66 1028.0
20200328232516 41 10 6.0 10.0 0.00 0.00 0.00 66 1028.0
20200328231556 41 21 4.0 6.0 0.00 0.00 0.00 65 1028.0
20200328230522 41 39 6.0 11.0 0.00 0.00 0.00 64 1028.0
20200328225524 41 14 4.0 7.0 0.00 0.00 0.00 64 1028.0
20200328224536 42 28 4.0 7.0 0.00 0.00 0.00 64 1028.0
20200328223534 41 27 7.0 9.0 0.00 0.00 0.00 64 1028.0
20200328222515 42 353 3.0 6.0 0.00 0.00 0.00 63 1028.0
20200328221529 42 15 6.0 9.0 0.00 0.00 0.00 63 1028.0
20200328220545 42 34 7.0 11.0 0.00 0.00 0.00 63 1028.0
20200328215526 42 41 6.0 9.0 0.00 0.00 0.00 63 1028.0
20200328214535 42 50 5.0 6.0 0.00 0.00 0.00 61 1028.0
20200328213516 41 346 3.0 7.0 0.00 0.00 0.00 60 1027.6
20200328212527 41 19 6.0 11.0 0.00 0.00 0.00 60 1027.0
20200328211532 41 35 5.0 8.0 0.00 0.00 0.00 58 1027.0
20200328210526 41 40 4.0 6.0 0.00 0.00 0.00 56 1027.0
20200328205532 41 38 4.0 6.0 0.00 0.00 0.00 55 1027.0
20200328204527 42 35 9.0 11.0 0.00 0.00 0.00 54 1027.0
20200328203534 42 45 6.0 10.0 0.00 0.00 0.00 53 1027.0
20200328201532 43 339 6.0 13.0 0.00 0.00 0.00 51 1027.0
20200328200518 43 60 7.0 11.0 0.00 0.00 0.00 50 1027.0
20200328195534 44 46 7.0 11.0 0.00 0.00 0.00 51 1027.0
20200328194526 44 36 7.0 13.0 0.00 0.00 0.00 52 1027.0
20200328193532 45 30 6.0 8.0 0.00 0.00 0.00 53 1026.7
20200328192530 45 3 5.0 10.0 0.00 0.00 0.00 55 1026.0
20200328191524 46 359 7.0 10.0 0.00 0.00 0.00 57 1026.0
20200328190529 46 40 7.0 10.0 0.00 0.00 0.00 53 1026.0
20200328185700 46 26 7.0 13.0 0.00 0.00 0.00 51 1026.0
20200328184530 47 34 6.0 9.0 0.00 0.00 0.00 50 1026.0
20200328183516 47 2 5.0 11.0 0.00 0.00 0.00 50 1026.0
20200328182515 47 11 5.0 9.0 0.00 0.00 0.00 50 1026.0
20200328181523 48 23 4.0 6.0 0.00 0.00 0.00 50 1025.0
20200328180536 48 58 6.0 8.0 0.00 0.00 0.00 49 1025.0
20200328175547 48 351 4.0 7.0 0.00 0.00 0.00 48 1025.0
20200328174519 49 30 4.0 6.0 0.00 0.00 0.00 48 1025.0
20200328173516 49 30 4.0 9.0 0.00 0.00 0.00 48 1025.0
20200328172534 49 63 5.0 8.0 0.00 0.00 0.00 48 1025.0
20200328171516 50 57 5.0 7.0 0.00 0.00 0.00 48 1025.0
20200328170538 50 35 5.0 7.0 0.00 0.00 0.00 48 1025.0
20200328165527 50 313 4.0 7.0 0.00 0.00 0.00 49 1025.0
20200328164515 50 29 6.0 8.0 0.00 0.00 0.00 49 1024.0
20200328163546 50 87 4.0 6.0 0.00 0.00 0.00 49 1024.0
20200328162548 50 62 5.0 7.0 0.00 0.00 0.00 49 1024.0